Year,Month,Day,Hour,Minute,Value (Times are PST for temperature in C)
2014,05,25,00,00,10.70
2014,05,25,00,01,10.70
2014,05,25,00,02,10.70
2014,05,25,00,03,10.70
2014,05,25,00,04,10.70
2014,05,25,00,05,10.70
2014,05,25,00,06,10.70
2014,05,25,00,07,10.70
2014,05,25,00,08,10.70
2014,05,25,00,09,10.60
2014,05,25,00,10,10.60
2014,05,25,00,11,10.60
2014,05,25,00,12,10.60
2014,05,25,00,13,10.60
2014,05,25,00,14,10.60
2014,05,25,00,15,10.60
2014,05,25,00,16,10.60
2014,05,25,00,17,10.60
2014,05,25,00,18,10.60
2014,05,25,00,19,10.60
2014,05,25,00,20,10.60
2014,05,25,00,21,10.60
2014,05,25,00,22,10.60
2014,05,25,00,23,10.60
2014,05,25,00,24,10.60
2014,05,25,00,25,10.60
2014,05,25,00,26,10.60
2014,05,25,00,27,10.60
2014,05,25,00,28,10.60
2014,05,25,00,29,10.60
2014,05,25,00,30,10.60
2014,05,25,00,31,10.60
2014,05,25,00,32,10.60
2014,05,25,00,33,10.60
2014,05,25,00,34,10.60
2014,05,25,00,35,10.60
2014,05,25,00,36,10.60
2014,05,25,00,37,10.60
2014,05,25,00,38,10.60
2014,05,25,00,39,10.60
2014,05,25,00,40,10.50
2014,05,25,00,41,10.50
2014,05,25,00,42,10.50
2014,05,25,00,43,10.50
2014,05,25,00,44,10.40
2014,05,25,00,45,10.40
2014,05,25,00,46,10.40
2014,05,25,00,47,10.40
2014,05,25,00,48,10.40
2014,05,25,00,49,10.40
2014,05,25,00,50,10.40
2014,05,25,00,51,10.40
2014,05,25,00,52,10.40
2014,05,25,00,53,10.30
2014,05,25,00,54,10.30
2014,05,25,00,55,10.30
2014,05,25,00,56,10.30
2014,05,25,00,57,10.30
2014,05,25,00,58,10.30
2014,05,25,00,59,10.30
2014,05,25,01,00,10.30
2014,05,25,01,01,10.20
2014,05,25,01,02,10.20
2014,05,25,01,03,10.20
2014,05,25,01,04,10.20
2014,05,25,01,05,10.20
2014,05,25,01,06,10.20
2014,05,25,01,07,10.20
2014,05,25,01,08,10.20
2014,05,25,01,09,10.20
2014,05,25,01,10,10.20
2014,05,25,01,11,10.20
2014,05,25,01,12,10.20
2014,05,25,01,13,10.20
2014,05,25,01,14,10.20
2014,05,25,01,15,10.20
2014,05,25,01,16,10.20
2014,05,25,01,17,10.20
2014,05,25,01,18,10.10
2014,05,25,01,19,10.10
2014,05,25,01,20,10.10
2014,05,25,01,21,10.10
2014,05,25,01,22,10.10
2014,05,25,01,23,10.10
2014,05,25,01,24,10.10
2014,05,25,01,25,10.10
2014,05,25,01,26,10.10
2014,05,25,01,27,10.10
2014,05,25,01,28,10.10
2014,05,25,01,29,10.10
2014,05,25,01,30,10.10
2014,05,25,01,31,10.10
2014,05,25,01,32,10.10
2014,05,25,01,33,10.10
2014,05,25,01,34,10.10
2014,05,25,01,35,10.10
2014,05,25,01,36,10.10
2014,05,25,01,37,10.10
2014,05,25,01,38,10.10
2014,05,25,01,39,10.10
2014,05,25,01,40,10.10
2014,05,25,01,41,10.10
2014,05,25,01,42,10.10
2014,05,25,01,43,10.10
2014,05,25,01,44,10.10
2014,05,25,01,45,10.10
2014,05,25,01,46,10.10
2014,05,25,01,47,10.10
2014,05,25,01,48,10.10
2014,05,25,01,49,10.10
2014,05,25,01,50,10.10
2014,05,25,01,51,10.10
2014,05,25,01,52,10.10
2014,05,25,01,53,10.10
2014,05,25,01,54,10.10
2014,05,25,01,55,10.10
2014,05,25,01,56,10.10
2014,05,25,01,57,10.10
2014,05,25,01,58,10.10
2014,05,25,01,59,10.10
2014,05,25,02,00,10.10
2014,05,25,02,01,10.10
2014,05,25,02,02,10.10
2014,05,25,02,03,10.10
2014,05,25,02,04,10.10
2014,05,25,02,05,10.10
2014,05,25,02,06,10.10
2014,05,25,02,07,10.10
2014,05,25,02,08,10.20
2014,05,25,02,09,10.20
2014,05,25,02,10,10.20
2014,05,25,02,11,10.20
2014,05,25,02,12,10.20
2014,05,25,02,13,10.30
2014,05,25,02,14,10.30
2014,05,25,02,15,10.30
2014,05,25,02,16,10.30
2014,05,25,02,17,10.40
2014,05,25,02,18,10.40
2014,05,25,02,19,10.40
2014,05,25,02,20,10.40
2014,05,25,02,21,10.40
2014,05,25,02,22,10.40
2014,05,25,02,23,10.40
2014,05,25,02,24,10.40
2014,05,25,02,25,10.40
2014,05,25,02,26,10.40
2014,05,25,02,27,10.40
2014,05,25,02,28,10.50
2014,05,25,02,29,10.50
2014,05,25,02,30,10.50
2014,05,25,02,31,10.50
2014,05,25,02,32,10.60
2014,05,25,02,33,10.60
2014,05,25,02,34,10.60
2014,05,25,02,35,10.60
2014,05,25,02,36,10.60
2014,05,25,02,37,10.70
2014,05,25,02,38,10.70
2014,05,25,02,39,10.70
2014,05,25,02,40,10.70
2014,05,25,02,41,10.70
2014,05,25,02,42,10.70
2014,05,25,02,43,10.70
2014,05,25,02,44,10.70
2014,05,25,02,45,10.70
2014,05,25,02,46,10.70
2014,05,25,02,47,10.70
2014,05,25,02,48,10.80
2014,05,25,02,49,10.80
2014,05,25,02,50,10.80
2014,05,25,02,51,10.80
2014,05,25,02,52,10.80
2014,05,25,02,53,10.80
2014,05,25,02,54,10.80
2014,05,25,02,55,10.80
2014,05,25,02,56,10.80
2014,05,25,02,57,10.70
2014,05,25,02,58,10.70
2014,05,25,02,59,10.70
2014,05,25,03,00,10.70
2014,05,25,03,01,10.70
2014,05,25,03,02,10.70
2014,05,25,03,03,10.70
2014,05,25,03,04,10.70
2014,05,25,03,05,10.70
2014,05,25,03,06,10.70
2014,05,25,03,07,10.70
2014,05,25,03,08,10.80
2014,05,25,03,09,10.80
2014,05,25,03,10,10.80
2014,05,25,03,11,10.80
2014,05,25,03,12,10.80
2014,05,25,03,13,10.70
2014,05,25,03,14,10.70
2014,05,25,03,15,10.70
2014,05,25,03,16,10.70
2014,05,25,03,17,10.70
2014,05,25,03,18,10.70
2014,05,25,03,19,10.70
2014,05,25,03,20,10.70
2014,05,25,03,21,10.70
2014,05,25,03,22,10.70
2014,05,25,03,23,10.70
2014,05,25,03,24,10.70
2014,05,25,03,25,10.70
2014,05,25,03,26,10.70
2014,05,25,03,27,10.70
2014,05,25,03,28,10.70
2014,05,25,03,29,10.70
2014,05,25,03,30,10.70
2014,05,25,03,31,10.70
2014,05,25,03,32,10.70
2014,05,25,03,33,10.70
2014,05,25,03,34,10.70
2014,05,25,03,35,10.70
2014,05,25,03,36,10.70
2014,05,25,03,37,10.70
2014,05,25,03,38,10.70
2014,05,25,03,39,10.70
2014,05,25,03,40,10.70
2014,05,25,03,41,10.70
2014,05,25,03,42,10.70
2014,05,25,03,43,10.70
2014,05,25,03,44,10.70
2014,05,25,03,45,10.70
2014,05,25,03,46,10.70
2014,05,25,03,47,10.70
2014,05,25,03,48,10.70
2014,05,25,03,49,10.70
2014,05,25,03,50,10.70
2014,05,25,03,51,10.70
2014,05,25,03,52,10.70
2014,05,25,03,53,10.70
2014,05,25,03,54,10.70
2014,05,25,03,55,10.70
2014,05,25,03,56,10.70
2014,05,25,03,57,10.70
2014,05,25,03,58,10.70
2014,05,25,03,59,10.70
2014,05,25,04,00,10.70
2014,05,25,04,01,10.70
2014,05,25,04,02,10.70
2014,05,25,04,03,10.70
2014,05,25,04,04,10.70
2014,05,25,04,05,10.70
2014,05,25,04,06,10.70
2014,05,25,04,07,10.70
2014,05,25,04,08,10.70
2014,05,25,04,09,10.70
2014,05,25,04,10,10.70
2014,05,25,04,11,10.70
2014,05,25,04,12,10.70
2014,05,25,04,13,10.70
2014,05,25,04,14,10.70
2014,05,25,04,15,10.70
2014,05,25,04,16,10.70
2014,05,25,04,17,10.70
2014,05,25,04,18,10.70
2014,05,25,04,19,10.70
2014,05,25,04,20,10.70
2014,05,25,04,21,10.70
2014,05,25,04,22,10.60
2014,05,25,04,23,10.70
2014,05,25,04,24,10.60
2014,05,25,04,25,10.60
2014,05,25,04,26,10.60
2014,05,25,04,27,10.60
2014,05,25,04,28,10.60
2014,05,25,04,29,10.60
2014,05,25,04,30,10.60
2014,05,25,04,31,10.60
2014,05,25,04,32,10.60
2014,05,25,04,33,10.60
2014,05,25,04,34,10.60
2014,05,25,04,35,10.60
2014,05,25,04,36,10.60
2014,05,25,04,37,10.60
2014,05,25,04,38,10.60
2014,05,25,04,39,10.60
2014,05,25,04,40,10.60
2014,05,25,04,41,10.60
2014,05,25,04,42,10.60
2014,05,25,04,43,10.60
2014,05,25,04,44,10.60
2014,05,25,04,45,10.60
2014,05,25,04,46,10.60
2014,05,25,04,47,10.60
2014,05,25,04,48,10.60
2014,05,25,04,49,10.60
2014,05,25,04,50,10.60
2014,05,25,04,51,10.50
2014,05,25,04,52,10.50
2014,05,25,04,53,10.50
2014,05,25,04,54,10.50
2014,05,25,04,55,10.50
2014,05,25,04,56,10.50
2014,05,25,04,57,10.50
2014,05,25,04,58,10.50
2014,05,25,04,59,10.50
2014,05,25,05,00,10.50
2014,05,25,05,01,10.50
2014,05,25,05,02,10.50
2014,05,25,05,03,10.50
2014,05,25,05,04,10.50
2014,05,25,05,05,10.50
2014,05,25,05,06,10.50
2014,05,25,05,07,10.50
2014,05,25,05,08,10.50
2014,05,25,05,09,10.50
2014,05,25,05,10,10.50
2014,05,25,05,11,10.50
2014,05,25,05,12,10.40
2014,05,25,05,13,10.40
2014,05,25,05,14,10.40
2014,05,25,05,15,10.40
2014,05,25,05,16,10.40
2014,05,25,05,17,10.50
2014,05,25,05,18,10.50
2014,05,25,05,19,10.50
2014,05,25,05,20,10.50
2014,05,25,05,21,10.50
2014,05,25,05,22,10.50
2014,05,25,05,23,10.50
2014,05,25,05,24,10.50
2014,05,25,05,25,10.40
2014,05,25,05,26,10.40
2014,05,25,05,27,10.40
2014,05,25,05,28,10.40
2014,05,25,05,29,10.40
2014,05,25,05,30,10.40
2014,05,25,05,31,10.40
2014,05,25,05,32,10.40
2014,05,25,05,33,10.40
2014,05,25,05,34,10.40
2014,05,25,05,35,10.40
2014,05,25,05,36,10.40
2014,05,25,05,37,10.40
2014,05,25,05,38,10.40
2014,05,25,05,39,10.40
2014,05,25,05,40,10.40
2014,05,25,05,41,10.40
2014,05,25,05,42,10.40
2014,05,25,05,43,10.40
2014,05,25,05,44,10.40
2014,05,25,05,45,10.40
2014,05,25,05,46,10.50
2014,05,25,05,47,10.50
2014,05,25,05,48,10.50
2014,05,25,05,49,10.50
2014,05,25,05,50,10.50
2014,05,25,05,51,10.50
2014,05,25,05,52,10.50
2014,05,25,05,53,10.50
2014,05,25,05,54,10.50
2014,05,25,05,55,10.50
2014,05,25,05,56,10.50
2014,05,25,05,57,10.50
2014,05,25,05,58,10.50
2014,05,25,05,59,10.50
2014,05,25,06,00,10.60
2014,05,25,06,01,10.60
2014,05,25,06,02,10.60
2014,05,25,06,03,10.60
2014,05,25,06,04,10.60
2014,05,25,06,05,10.70
2014,05,25,06,06,10.70
2014,05,25,06,07,10.70
2014,05,25,06,08,10.70
2014,05,25,06,09,10.80
2014,05,25,06,10,10.80
2014,05,25,06,11,10.80
2014,05,25,06,12,10.80
2014,05,25,06,13,10.80
2014,05,25,06,14,10.90
2014,05,25,06,15,10.90
2014,05,25,06,16,10.90
2014,05,25,06,17,10.90
2014,05,25,06,18,11.00
2014,05,25,06,19,11.00
2014,05,25,06,20,11.00
2014,05,25,06,21,11.00
2014,05,25,06,22,11.10
2014,05,25,06,23,11.10
2014,05,25,06,24,11.10
2014,05,25,06,25,11.20
2014,05,25,06,26,11.20
2014,05,25,06,27,11.20
2014,05,25,06,28,11.30
2014,05,25,06,29,11.30
2014,05,25,06,30,11.30
2014,05,25,06,31,11.30
2014,05,25,06,32,11.30
2014,05,25,06,33,11.40
2014,05,25,06,34,11.40
2014,05,25,06,35,11.40
2014,05,25,06,36,11.40
2014,05,25,06,37,11.40
2014,05,25,06,38,11.40
2014,05,25,06,39,11.50
2014,05,25,06,40,11.50
2014,05,25,06,41,11.50
2014,05,25,06,42,11.50
2014,05,25,06,43,11.50
2014,05,25,06,44,11.60
2014,05,25,06,45,11.60
2014,05,25,06,46,11.60
2014,05,25,06,47,11.60
2014,05,25,06,48,11.60
2014,05,25,06,49,11.60
2014,05,25,06,50,11.60
2014,05,25,06,51,11.60
2014,05,25,06,52,11.60
2014,05,25,06,53,11.70
2014,05,25,06,54,11.70
2014,05,25,06,55,11.70
2014,05,25,06,56,11.70
2014,05,25,06,57,11.70
2014,05,25,06,58,11.70
2014,05,25,06,59,11.70
2014,05,25,07,00,11.70
2014,05,25,07,01,11.70
2014,05,25,07,02,11.80
2014,05,25,07,03,11.80
2014,05,25,07,04,11.80
2014,05,25,07,05,11.80
2014,05,25,07,06,11.80
2014,05,25,07,07,11.80
2014,05,25,07,08,11.90
2014,05,25,07,09,11.90
2014,05,25,07,10,11.90
2014,05,25,07,11,11.90
2014,05,25,07,12,11.90
2014,05,25,07,13,12.00
2014,05,25,07,14,12.00
2014,05,25,07,15,12.00
2014,05,25,07,16,12.00
2014,05,25,07,17,12.00
2014,05,25,07,18,12.10
2014,05,25,07,19,12.10
2014,05,25,07,20,12.10
2014,05,25,07,21,12.10
2014,05,25,07,22,12.10
2014,05,25,07,23,12.10
2014,05,25,07,24,12.10
2014,05,25,07,25,12.10
2014,05,25,07,26,12.20
2014,05,25,07,27,12.20
2014,05,25,07,28,12.20
2014,05,25,07,29,12.20
2014,05,25,07,30,12.20
2014,05,25,07,31,12.20
2014,05,25,07,32,12.20
2014,05,25,07,33,12.20
2014,05,25,07,34,12.20
2014,05,25,07,35,12.20
2014,05,25,07,36,12.30
2014,05,25,07,37,12.30
2014,05,25,07,38,12.30
2014,05,25,07,39,12.30
2014,05,25,07,40,12.30
2014,05,25,07,41,12.30
2014,05,25,07,42,12.30
2014,05,25,07,43,12.30
2014,05,25,07,44,12.30
2014,05,25,07,45,12.30
2014,05,25,07,46,12.30
2014,05,25,07,47,12.40
2014,05,25,07,48,12.40
2014,05,25,07,49,12.40
2014,05,25,07,50,12.40
2014,05,25,07,51,12.40
2014,05,25,07,52,12.40
2014,05,25,07,53,12.50
2014,05,25,07,54,12.50
2014,05,25,07,55,12.50
2014,05,25,07,56,12.50
2014,05,25,07,57,12.50
2014,05,25,07,58,12.50
2014,05,25,07,59,12.60
2014,05,25,08,00,12.60
2014,05,25,08,01,12.60
2014,05,25,08,02,12.60
2014,05,25,08,03,12.60
2014,05,25,08,04,12.60
2014,05,25,08,05,12.60
2014,05,25,08,06,12.60
2014,05,25,08,07,12.60
2014,05,25,08,08,12.70
2014,05,25,08,09,12.70
2014,05,25,08,10,12.70
2014,05,25,08,11,12.70
2014,05,25,08,12,12.70
2014,05,25,08,13,12.70
2014,05,25,08,14,12.70
2014,05,25,08,15,12.80
2014,05,25,08,16,12.80
2014,05,25,08,17,12.80
2014,05,25,08,18,12.80
2014,05,25,08,19,12.80
2014,05,25,08,20,12.80
2014,05,25,08,21,12.80
2014,05,25,08,22,12.80
2014,05,25,08,23,12.80
2014,05,25,08,24,12.80
2014,05,25,08,25,12.80
2014,05,25,08,26,12.90
2014,05,25,08,27,12.90
2014,05,25,08,28,12.90
2014,05,25,08,29,12.90
2014,05,25,08,30,12.90
2014,05,25,08,31,12.90
2014,05,25,08,32,13.00
2014,05,25,08,33,13.00
2014,05,25,08,34,13.00
2014,05,25,08,35,13.00
2014,05,25,08,36,13.00
2014,05,25,08,37,13.00
2014,05,25,08,38,13.00
2014,05,25,08,39,13.00
2014,05,25,08,40,13.10
2014,05,25,08,41,13.10
2014,05,25,08,42,13.10
2014,05,25,08,43,13.10
2014,05,25,08,44,13.10
2014,05,25,08,45,13.10
2014,05,25,08,46,13.10
2014,05,25,08,47,13.10
2014,05,25,08,48,13.10
2014,05,25,08,49,13.10
2014,05,25,08,50,13.10
2014,05,25,08,51,13.10
2014,05,25,08,52,13.10
2014,05,25,08,53,13.10
2014,05,25,08,54,13.10
2014,05,25,08,55,13.10
2014,05,25,08,56,13.20
2014,05,25,08,57,13.20
2014,05,25,08,58,13.20
2014,05,25,08,59,13.20
2014,05,25,09,00,13.20
2014,05,25,09,01,13.20
2014,05,25,09,02,13.20
2014,05,25,09,03,13.20
2014,05,25,09,04,13.20
2014,05,25,09,05,13.20
2014,05,25,09,06,13.20
2014,05,25,09,07,13.20
2014,05,25,09,08,13.20
2014,05,25,09,09,13.20
2014,05,25,09,10,13.20
2014,05,25,09,11,13.20
2014,05,25,09,12,13.20
2014,05,25,09,13,13.30
2014,05,25,09,14,13.30
2014,05,25,09,15,13.30
2014,05,25,09,16,13.30
2014,05,25,09,17,13.30
2014,05,25,09,18,13.30
2014,05,25,09,19,13.30
2014,05,25,09,20,13.30
2014,05,25,09,21,13.20
2014,05,25,09,22,13.20
2014,05,25,09,23,13.20
2014,05,25,09,24,13.20
2014,05,25,09,25,13.20
2014,05,25,09,26,13.20
2014,05,25,09,27,13.20
2014,05,25,09,28,13.20
2014,05,25,09,29,13.20
2014,05,25,09,30,13.20
2014,05,25,09,31,13.20
2014,05,25,09,32,13.20
2014,05,25,09,33,13.20
2014,05,25,09,34,13.20
2014,05,25,09,35,13.20
2014,05,25,09,36,13.20
2014,05,25,09,37,13.20
2014,05,25,09,38,13.20
2014,05,25,09,39,13.20
2014,05,25,09,40,13.20
2014,05,25,09,41,13.20
2014,05,25,09,42,13.20
2014,05,25,09,43,13.20
2014,05,25,09,44,13.20
2014,05,25,09,45,13.20
2014,05,25,09,46,13.10
2014,05,25,09,47,13.10
2014,05,25,09,48,13.10
2014,05,25,09,49,13.10
2014,05,25,09,50,13.10
2014,05,25,09,51,13.10
2014,05,25,09,52,13.10
2014,05,25,09,53,13.10
2014,05,25,09,54,13.10
2014,05,25,09,55,13.10
2014,05,25,09,56,13.10
2014,05,25,09,57,13.10
2014,05,25,09,58,13.10
2014,05,25,09,59,13.10
2014,05,25,10,00,13.10
2014,05,25,10,01,13.10
2014,05,25,10,02,13.10
2014,05,25,10,03,13.10
2014,05,25,10,04,13.10
2014,05,25,10,05,13.10
2014,05,25,10,06,13.10
2014,05,25,10,07,13.10
2014,05,25,10,08,13.10
2014,05,25,10,09,13.00
2014,05,25,10,10,13.00
2014,05,25,10,11,13.00
2014,05,25,10,12,12.90
2014,05,25,10,13,12.90
2014,05,25,10,14,12.90
2014,05,25,10,15,12.80
2014,05,25,10,16,12.80
2014,05,25,10,17,12.80
2014,05,25,10,18,12.70
2014,05,25,10,19,12.70
2014,05,25,10,20,12.70
2014,05,25,10,21,12.70
2014,05,25,10,22,12.70
2014,05,25,10,23,12.70
2014,05,25,10,24,12.70
2014,05,25,10,25,12.70
2014,05,25,10,26,12.70
2014,05,25,10,27,12.70
2014,05,25,10,28,12.80
2014,05,25,10,29,12.80
2014,05,25,10,30,12.80
2014,05,25,10,31,12.80
2014,05,25,10,32,12.70
2014,05,25,10,33,12.70
2014,05,25,10,34,12.70
2014,05,25,10,35,12.70
2014,05,25,10,36,12.70
2014,05,25,10,37,12.70
2014,05,25,10,38,12.70
2014,05,25,10,39,12.60
2014,05,25,10,40,12.60
2014,05,25,10,41,12.60
2014,05,25,10,42,12.60
2014,05,25,10,43,12.60
2014,05,25,10,44,12.50
2014,05,25,10,45,12.50
2014,05,25,10,46,12.50
2014,05,25,10,47,12.60
2014,05,25,10,48,12.50
2014,05,25,10,49,12.50
2014,05,25,10,50,12.50
2014,05,25,10,51,12.50
2014,05,25,10,52,12.40
2014,05,25,10,53,12.40
2014,05,25,10,54,12.40
2014,05,25,10,55,12.40
2014,05,25,10,56,12.40
2014,05,25,10,57,12.40
2014,05,25,10,58,12.40
2014,05,25,10,59,12.40
2014,05,25,11,00,12.50
2014,05,25,11,01,12.50
2014,05,25,11,02,12.50
2014,05,25,11,03,12.50
2014,05,25,11,04,12.60
2014,05,25,11,05,12.60
2014,05,25,11,06,12.60
2014,05,25,11,07,12.60
2014,05,25,11,08,12.60
2014,05,25,11,09,12.60
2014,05,25,11,10,12.60
2014,05,25,11,11,12.60
2014,05,25,11,12,12.70
2014,05,25,11,13,12.70
2014,05,25,11,14,12.70
2014,05,25,11,15,12.70
2014,05,25,11,16,12.70
2014,05,25,11,17,12.70
2014,05,25,11,18,12.70
2014,05,25,11,19,12.80
2014,05,25,11,20,12.70
2014,05,25,11,21,12.70
2014,05,25,11,22,12.70
2014,05,25,11,23,12.70
2014,05,25,11,24,12.70
2014,05,25,11,25,12.80
2014,05,25,11,26,12.80
2014,05,25,11,27,12.80
2014,05,25,11,28,12.90
2014,05,25,11,29,12.90
2014,05,25,11,30,12.80
2014,05,25,11,31,12.80
2014,05,25,11,32,12.80
2014,05,25,11,33,12.80
2014,05,25,11,34,12.80
2014,05,25,11,35,12.80
2014,05,25,11,36,12.80
2014,05,25,11,37,12.80
2014,05,25,11,38,12.80
2014,05,25,11,39,12.80
2014,05,25,11,40,12.80
2014,05,25,11,41,12.80
2014,05,25,11,42,12.80
2014,05,25,11,43,12.80
2014,05,25,11,44,12.80
2014,05,25,11,45,12.80
2014,05,25,11,46,12.80
2014,05,25,11,47,12.70
2014,05,25,11,48,12.70
2014,05,25,11,49,12.70
2014,05,25,11,50,12.70
2014,05,25,11,51,12.70
2014,05,25,11,52,12.70
2014,05,25,11,53,12.60
2014,05,25,11,54,12.60
2014,05,25,11,55,12.70
2014,05,25,11,56,12.70
2014,05,25,11,57,12.70
2014,05,25,11,58,12.70
2014,05,25,11,59,12.70
2014,05,25,12,00,12.70
2014,05,25,12,01,12.70
2014,05,25,12,02,12.60
2014,05,25,12,03,12.60
2014,05,25,12,04,12.60
2014,05,25,12,05,12.60
2014,05,25,12,06,12.70
2014,05,25,12,07,12.70
2014,05,25,12,08,12.70
2014,05,25,12,09,12.70
2014,05,25,12,10,12.60
2014,05,25,12,11,12.60
2014,05,25,12,12,12.60
2014,05,25,12,13,12.60
2014,05,25,12,14,12.60
2014,05,25,12,15,12.60
2014,05,25,12,16,12.70
2014,05,25,12,17,12.70
2014,05,25,12,18,12.70
2014,05,25,12,19,12.60
2014,05,25,12,20,12.60
2014,05,25,12,21,12.60
2014,05,25,12,22,12.60
2014,05,25,12,23,12.60
2014,05,25,12,24,12.60
2014,05,25,12,25,12.60
2014,05,25,12,26,12.60
2014,05,25,12,27,12.60
2014,05,25,12,28,12.60
2014,05,25,12,29,12.50
2014,05,25,12,30,12.50
2014,05,25,12,31,12.50
2014,05,25,12,32,12.50
2014,05,25,12,33,12.50
2014,05,25,12,34,12.50
2014,05,25,12,35,12.50
2014,05,25,12,36,12.50
2014,05,25,12,37,12.50
2014,05,25,12,38,12.60
2014,05,25,12,39,12.60
2014,05,25,12,40,12.60
2014,05,25,12,41,12.60
2014,05,25,12,42,12.60
2014,05,25,12,43,12.60
2014,05,25,12,44,12.60
2014,05,25,12,45,12.70
2014,05,25,12,46,12.70
2014,05,25,12,47,12.70
2014,05,25,12,48,12.70
2014,05,25,12,49,12.70
2014,05,25,12,50,12.70
2014,05,25,12,51,12.70
2014,05,25,12,52,12.80
2014,05,25,12,53,12.80
2014,05,25,12,54,12.80
2014,05,25,12,55,12.80
2014,05,25,12,56,12.80
2014,05,25,12,57,12.80
2014,05,25,12,58,12.80
2014,05,25,12,59,12.90
2014,05,25,13,00,12.90
2014,05,25,13,01,12.90
2014,05,25,13,02,12.90
2014,05,25,13,03,12.90
2014,05,25,13,04,12.90
2014,05,25,13,05,12.90
2014,05,25,13,06,12.90
2014,05,25,13,07,13.00
2014,05,25,13,08,13.00
2014,05,25,13,09,13.10
2014,05,25,13,10,13.10
2014,05,25,13,11,13.20
2014,05,25,13,12,13.20
2014,05,25,13,13,13.20
2014,05,25,13,14,13.20
2014,05,25,13,15,13.20
2014,05,25,13,16,13.20
2014,05,25,13,17,13.30
2014,05,25,13,18,13.30
2014,05,25,13,19,13.30
2014,05,25,13,20,13.30
2014,05,25,13,21,13.30
2014,05,25,13,22,13.30
2014,05,25,13,23,13.30
2014,05,25,13,24,13.40
2014,05,25,13,25,13.40
2014,05,25,13,26,13.40
2014,05,25,13,27,13.30
2014,05,25,13,28,13.30
2014,05,25,13,29,13.30
2014,05,25,13,30,13.30
2014,05,25,13,31,13.30
2014,05,25,13,32,13.30
2014,05,25,13,33,13.30
2014,05,25,13,34,13.30
2014,05,25,13,35,13.40
2014,05,25,13,36,13.40
2014,05,25,13,37,13.40
2014,05,25,13,38,13.30
2014,05,25,13,39,13.30
2014,05,25,13,40,13.30
2014,05,25,13,41,13.30
2014,05,25,13,42,13.30
2014,05,25,13,43,13.30
2014,05,25,13,44,13.30
2014,05,25,13,45,13.30
2014,05,25,13,46,13.20
2014,05,25,13,47,13.30
2014,05,25,13,48,13.30
2014,05,25,13,49,13.40
2014,05,25,13,50,13.40
2014,05,25,13,51,13.40
2014,05,25,13,52,13.50
2014,05,25,13,53,13.50
2014,05,25,13,54,13.60
2014,05,25,13,55,13.60
2014,05,25,13,56,13.60
2014,05,25,13,57,13.70
2014,05,25,13,58,13.70
2014,05,25,13,59,13.70
2014,05,25,14,00,13.70
2014,05,25,14,01,13.60
2014,05,25,14,02,13.60
2014,05,25,14,03,13.60
2014,05,25,14,04,13.60
2014,05,25,14,05,13.60
2014,05,25,14,06,13.50
2014,05,25,14,07,13.50
2014,05,25,14,08,13.50
2014,05,25,14,09,13.50
2014,05,25,14,10,13.50
2014,05,25,14,11,13.50
2014,05,25,14,12,13.50
2014,05,25,14,13,13.50
2014,05,25,14,14,13.50
2014,05,25,14,15,13.50
2014,05,25,14,16,13.50
2014,05,25,14,17,13.50
2014,05,25,14,18,13.40
2014,05,25,14,19,13.40
2014,05,25,14,20,13.40
2014,05,25,14,21,13.40
2014,05,25,14,22,13.40
2014,05,25,14,23,13.40
2014,05,25,14,24,13.40
2014,05,25,14,25,13.40
2014,05,25,14,26,13.40
2014,05,25,14,27,13.40
2014,05,25,14,28,13.40
2014,05,25,14,29,13.40
2014,05,25,14,30,13.50
2014,05,25,14,31,13.50
2014,05,25,14,32,13.50
2014,05,25,14,33,13.50
2014,05,25,14,34,13.50
2014,05,25,14,35,13.50
2014,05,25,14,36,13.50
2014,05,25,14,37,13.50
2014,05,25,14,38,13.40
2014,05,25,14,39,13.40
2014,05,25,14,40,13.40
2014,05,25,14,41,13.40
2014,05,25,14,42,13.40
2014,05,25,14,43,13.40
2014,05,25,14,44,13.50
2014,05,25,14,45,13.50
2014,05,25,14,46,13.50
2014,05,25,14,47,13.50
2014,05,25,14,48,13.50
2014,05,25,14,49,13.60
2014,05,25,14,50,13.60
2014,05,25,14,51,13.60
2014,05,25,14,52,13.60
2014,05,25,14,53,13.60
2014,05,25,14,54,13.60
2014,05,25,14,55,13.70
2014,05,25,14,56,13.60
2014,05,25,14,57,13.60
2014,05,25,14,58,13.60
2014,05,25,14,59,13.60
2014,05,25,15,00,13.60
2014,05,25,15,01,13.50
2014,05,25,15,02,13.50
2014,05,25,15,03,13.50
2014,05,25,15,04,13.40
2014,05,25,15,05,13.40
2014,05,25,15,06,13.40
2014,05,25,15,07,13.40
2014,05,25,15,08,13.40
2014,05,25,15,09,13.40
2014,05,25,15,10,13.40
2014,05,25,15,11,13.40
2014,05,25,15,12,13.40
2014,05,25,15,13,13.40
2014,05,25,15,14,13.40
2014,05,25,15,15,13.40
2014,05,25,15,16,13.40
2014,05,25,15,17,13.40
2014,05,25,15,18,13.40
2014,05,25,15,19,13.40
2014,05,25,15,20,13.40
2014,05,25,15,21,13.40
2014,05,25,15,22,13.40
2014,05,25,15,23,13.30
2014,05,25,15,24,13.30
2014,05,25,15,25,13.30
2014,05,25,15,26,13.30
2014,05,25,15,27,13.30
2014,05,25,15,28,13.30
2014,05,25,15,29,13.30
2014,05,25,15,30,13.30
2014,05,25,15,31,13.30
2014,05,25,15,32,13.30
2014,05,25,15,33,13.30
2014,05,25,15,34,13.30
2014,05,25,15,35,13.30
2014,05,25,15,36,13.20
2014,05,25,15,37,13.20
2014,05,25,15,38,13.20
2014,05,25,15,39,13.20
2014,05,25,15,40,13.20
2014,05,25,15,41,13.20
2014,05,25,15,42,13.20
2014,05,25,15,43,13.20
2014,05,25,15,44,13.20
2014,05,25,15,45,13.10
2014,05,25,15,46,13.10
2014,05,25,15,47,13.10
2014,05,25,15,48,13.10
2014,05,25,15,49,13.10
2014,05,25,15,50,13.10
2014,05,25,15,51,13.10
2014,05,25,15,52,13.10
2014,05,25,15,53,13.10
2014,05,25,15,54,13.10
2014,05,25,15,55,13.10
2014,05,25,15,56,13.10
2014,05,25,15,57,13.10
2014,05,25,15,58,13.10
2014,05,25,15,59,13.10
2014,05,25,16,00,13.10
2014,05,25,16,01,13.10
2014,05,25,16,02,13.10
2014,05,25,16,03,13.00
2014,05,25,16,04,13.00
2014,05,25,16,05,13.00
2014,05,25,16,06,12.90
2014,05,25,16,07,12.90
2014,05,25,16,08,12.90
2014,05,25,16,09,12.90
2014,05,25,16,10,12.90
2014,05,25,16,11,12.90
2014,05,25,16,12,12.90
2014,05,25,16,13,12.90
2014,05,25,16,14,12.90
2014,05,25,16,15,12.90
2014,05,25,16,16,12.90
2014,05,25,16,17,12.90
2014,05,25,16,18,12.90
2014,05,25,16,19,12.90
2014,05,25,16,20,12.90
2014,05,25,16,21,12.90
2014,05,25,16,22,12.90
2014,05,25,16,23,12.90
2014,05,25,16,24,12.90
2014,05,25,16,25,12.90
2014,05,25,16,26,12.90
2014,05,25,16,27,12.80
2014,05,25,16,28,12.80
2014,05,25,16,29,12.80
2014,05,25,16,30,12.80
2014,05,25,16,31,12.80
2014,05,25,16,32,12.80
2014,05,25,16,33,12.80
2014,05,25,16,34,12.80
2014,05,25,16,35,12.70
2014,05,25,16,36,12.70
2014,05,25,16,37,12.80
2014,05,25,16,38,12.80
2014,05,25,16,39,12.80
2014,05,25,16,40,12.80
2014,05,25,16,41,12.80
2014,05,25,16,42,12.80
2014,05,25,16,43,12.80
2014,05,25,16,44,12.80
2014,05,25,16,45,12.80
2014,05,25,16,46,12.80
2014,05,25,16,47,12.80
2014,05,25,16,48,12.80
2014,05,25,16,49,12.80
2014,05,25,16,50,12.90
2014,05,25,16,51,12.90
2014,05,25,16,52,12.90
2014,05,25,16,53,12.90
2014,05,25,16,54,12.90
2014,05,25,16,55,12.90
2014,05,25,16,56,12.90
2014,05,25,16,57,13.00
2014,05,25,16,58,13.00
2014,05,25,16,59,13.00
2014,05,25,17,00,13.00
2014,05,25,17,01,13.00
2014,05,25,17,02,13.00
2014,05,25,17,03,13.00
2014,05,25,17,04,13.10
2014,05,25,17,05,13.10
2014,05,25,17,06,13.10
2014,05,25,17,07,13.10
2014,05,25,17,08,13.10
2014,05,25,17,09,13.10
2014,05,25,17,10,13.10
2014,05,25,17,11,13.10
2014,05,25,17,12,13.10
2014,05,25,17,13,13.10
2014,05,25,17,14,13.10
2014,05,25,17,15,13.10
2014,05,25,17,16,13.10
2014,05,25,17,17,13.10
2014,05,25,17,18,13.20
2014,05,25,17,19,13.20